User: anonymous
Location: Unspecified
(0.0000°N, 0.0000°E)
Time: 08:06:14
(UTC+00:00)
Language:

WGS F3 (USA 211) - Orbit

View from above orbital plane
View from above orbital plane
View from above satellite
View from above satellite

Ground track
Ground track

The orbit data is extracted from the following two-line orbital elements,

1 36108U 09068A   14089.14657729 0.00000000  00000-0  00000-0 0    07
2 36108   0.0157 228.6426 0024886 344.3893  15.4413  1.00270000    03
Epoch (UTC): 30 March 2014 03:31:04
Eccentricity: 0.0024886
inclination: 0.0157°
perigee height: 35682 km
apogee height: 35891 km
right ascension of ascending node: 228.6426°
argument of perigee: 344.3893°
revolutions per day: 1.00270000
mean anomaly at epoch: 15.4413°
orbit number at epoch: 0

The dashed part of the orbit path shows where the satellite is in the earth's shadow,  

DLR